Regional Weather Roundup
Issued by NWS Sterling, VA

Home | Current Version | Previous Version | Graphics & Text | Print | Product List | Glossary On
Versions: 1 2 3 4 5 6 7 8 9 10 11 12 13 14 15 16 17 18 19 20 21 22 23 24 25 26 27 28 29 30 31 32 33 34 35 36 37 38 39 40 41 42 43 44 45 46 47 48 49 50
087
ASUS41 KLWX 030210
RWRLWX

REGIONAL WEATHER ROUNDUP
NATIONAL WEATHER SERVICE BALTIMORE MD/WASHINGTON DC
900 PM EST FRI DEC 02 2016

Note: "FAIR" indicates few or no clouds below 12,000 feet
with no significant weather and/or obstructions to visibility.
 TC=TEMPERATURE CELSIUS

 * =Non NWS site. Station does not report precipitation (e.g. rain,
    snow, etc.), thunder, or fog.

DCZ001-MDZ009-015-VAZ040>042-051-053>054-030300-
WASHINGTON METRO

CITY           SKY/WX    TMP DP  RH WIND       PRES   REMARKS
WASHINGTON NAT CLOUDY    45  28  51 W13       30.13R
DULLES         CLOUDY    42  27  55 W10       30.13R
ANDREWS AFB    CLOUDY    44  27  51 NW13G22   30.10R
FT BELVOIR     CLOUDY    44  28  52 W7        30.12S
QUANTICO       MOCLDY    44  26  49 N15G29    30.15R
COLLEGE PARK*  CLOUDY    43  27  52 W10G16    30.11S
LEESBURG*      CLOUDY    43  32  65 NW20G26   30.12R
MANASSAS*      CLOUDY    43  28  56 NW9       30.13S
GAITHERSBURG*  CLOUDY    41  25  52 W10G16    30.13R

$$

MDZ006>007-011-014-030300-
BALTIMORE METRO

CITY           SKY/WX    TMP DP  RH WIND       PRES   REMARKS
BWI AIRPORT    CLOUDY    43  28  55 W13       30.08S
MD SCIENCE CTR   N/A     45  26  47 MISG      30.07F
MARTIN STATE   CLOUDY    45  30  57 W9G20     30.08F
ANNAPOLIS      CLOUDY    46  27  47 W6        30.09S
FORT MEADE*    CLOUDY    43  28  56 W7        30.12R

$$

MDZ012-015-019>023-030300-
MARYLAND EASTERN SHORE

CITY           SKY/WX    TMP DP  RH WIND       PRES   REMARKS
OCEAN CITY     PTCLDY    41  29  62 NW6       30.08R
SALISBURY      CLEAR     42  29  59 NW13      30.08R
BAY BRIDGE AP* MOCLDY    45  28  53 W12G21    30.09S
CAMBRIDGE*     MOCLDY    43  28  56 NW17G23   30.09R
EASTON*        MOCLDY    45  28  53 NW16G25   30.12S

$$

MDZ017>025-030300-
SOUTHERN MARYLAND

CITY           SKY/WX    TMP DP  RH WIND       PRES   REMARKS
PATUXENT RIVER PTCLDY    44  28  53 NW14      30.11R
ST INIGOES     CLEAR     44  29  55 VRB7      30.11R
LEONARDTOWN*   CLOUDY    43  28  56 NW7       30.12R

$$

MDZ003>005-030300-
NORTH CENTRAL MARYLAND

CITY           SKY/WX    TMP DP  RH WIND       PRES   REMARKS
FREDERICK*     NOT AVBL
HAGERSTOWN APT CLOUDY    41  26  55 W9        30.07S
WESTMINSTER*   CLOUDY    39  27  60 W10G17    30.04S

$$

MDZ501>502-030300-
WESTERN MARYLAND

CITY           SKY/WX    TMP DP  RH WIND       PRES   REMARKS
OAKLAND*       CLOUDY    28  28 100 W18G25    30.06R WCI  16
CUMBERLAND*    NOT AVBL

$$

VAZ025>031-030300-
SHENANDOAH VALLEY

CITY           SKY/WX    TMP DP  RH WIND       PRES   REMARKS
WINCHESTER*    CLOUDY    39  27  60 W15G22    30.12S
FRONT ROYAL*   CLOUDY    41  27  56 W8        30.12R
LURAY*         CLOUDY    39  30  70 S6        30.12S
NEW MARKET*    CLOUDY    39  23  52 W5        30.13R
STAUNTON*      CLOUDY    38  27  63 W3        30.16R
WAYNESBORO*    MOCLDY    38  27  64 NW7       30.12S

$$

WVZ021-048>050-054>055-030300-
EASTERN WEST VIRGINIA PANHANDLE

CITY           SKY/WX    TMP DP  RH WIND       PRES   REMARKS
MARTINSBURG    CLOUDY    41  25  53 W16       30.09F
PETERSBURG*    CLOUDY    41  27  56 CALM      30.16R

$$

VAZ036>039-050-030300-
CENTRAL FOOTHILLS

CITY           SKY/WX    TMP DP  RH WIND       PRES   REMARKS
CHARLOTTESVILL CLOUDY    44  27  51 NE5       30.13R
CULPEPER*      CLOUDY    44  29  55 CALM      30.14S
ORANGE*          N/A     43  30  61 CALM      30.15R
GORDONSVILLE*  MOCLDY    42  29  59 W3        30.13R
WARRENTON*     CLOUDY    43  25  49 W6        30.13R

$$

VAZ055>057-030300-
NORTH AND CENTRAL PIEDMONT

CITY           SKY/WX    TMP DP  RH WIND       PRES   REMARKS
FREDERICKSBRG* CLEAR     43  31  64 NW8       30.13R
STAFFORD*      PTCLDY    41  29  61 N14       30.17R

$$

NCZ024-NYZ072-PAZ021-071-VAZ022-071-030300-
OTHER REGIONAL OBSERVATIONS

CITY           SKY/WX    TMP DP  RH WIND       PRES   REMARKS
NEW YORK CITY  CLOUDY    46  28  49 W12G21    29.92S
PHILADELPHIA   CLOUDY    44  28  53 W16       30.01S
PITTSBURGH     CLOUDY    37  32  82 W8        30.13S
ROANOKE        CLOUDY    41  28  60 NW17      30.18R
RICHMOND       CLEAR     44  30  57 N13       30.13R
RALEIGH        PTCLDY    43  32  65 W3        30.16R

$$

ANZ530>537-030300-
MARINE OBSERVATIONS

STATION/POSITION TIME  TEMP    WIND        PRES
                       AIR SEA DIR/SP/G
                 (UTC) (F)     (DEG/KT/KT) (MB)
THOMAS PT LIGHT  0100   45 50  290/ 19/ 24   N/A
BALT KEY BRIDGE  0148   45     240/ 15/ 18 1018.3F
COVE POINT       0148   44     340/ 22/ 28 1019.9R
LEWISETTA        0148   45 52  340/ 15/ 22 1019.5R
SOLOMONS ISLAND  0148   45 52  340/ 12/ 19   N/A
PINEY POINT      0148          360/ 12/ 14   N/A

$$





USA.gov is the U.S. government's official web portal to all federal, state and local government web resources and services.